Index of /20260507/WXO-DD/model_caps/3km/00/024
Name Last modified Size Description
Parent Directory -
20260507T00Z_MSC_CAPS_AbsoluteVorticity_IsbL-0250_RLatLon0.03_PT024H.grib2 2026-05-07 06:13 1.2M
20260507T00Z_MSC_CAPS_AbsoluteVorticity_IsbL-0500_RLatLon0.03_PT024H.grib2 2026-05-07 06:13 1.1M
20260507T00Z_MSC_CAPS_AbsoluteVorticity_IsbL-0700_RLatLon0.03_PT024H.grib2 2026-05-07 06:13 1.3M
20260507T00Z_MSC_CAPS_AbsoluteVorticity_IsbL-0850_RLatLon0.03_PT024H.grib2 2026-05-07 06:13 1.5M
20260507T00Z_MSC_CAPS_AbsoluteVorticity_IsbL-1000_RLatLon0.03_PT024H.grib2 2026-05-07 06:13 1.3M
20260507T00Z_MSC_CAPS_AirDensity_AGL-120m_RLatLon0.03_PT024H.grib2 2026-05-07 06:13 1.4M
20260507T00Z_MSC_CAPS_AirDensity_AGL-40m_RLatLon0.03_PT024H.grib2 2026-05-07 06:13 1.4M
20260507T00Z_MSC_CAPS_AirDensity_AGL-80m_RLatLon0.03_PT024H.grib2 2026-05-07 06:13 1.4M
20260507T00Z_MSC_CAPS_AirTemp_AGL-120m_RLatLon0.03_PT024H.grib2 2026-05-07 06:13 1.4M
20260507T00Z_MSC_CAPS_AirTemp_AGL-2m_RLatLon0.03_PT024H.grib2 2026-05-07 06:13 1.8M
20260507T00Z_MSC_CAPS_AirTemp_AGL-40m_RLatLon0.03_PT024H.grib2 2026-05-07 06:13 1.5M
20260507T00Z_MSC_CAPS_AirTemp_AGL-80m_RLatLon0.03_PT024H.grib2 2026-05-07 06:13 1.4M
20260507T00Z_MSC_CAPS_AirTemp_IsbL-0050_RLatLon0.03_PT024H.grib2 2026-05-07 06:13 685K
20260507T00Z_MSC_CAPS_AirTemp_IsbL-0100_RLatLon0.03_PT024H.grib2 2026-05-07 06:13 944K
20260507T00Z_MSC_CAPS_AirTemp_IsbL-0150_RLatLon0.03_PT024H.grib2 2026-05-07 06:13 750K
20260507T00Z_MSC_CAPS_AirTemp_IsbL-0175_RLatLon0.03_PT024H.grib2 2026-05-07 06:13 777K
20260507T00Z_MSC_CAPS_AirTemp_IsbL-0200_RLatLon0.03_PT024H.grib2 2026-05-07 06:13 797K
20260507T00Z_MSC_CAPS_AirTemp_IsbL-0225_RLatLon0.03_PT024H.grib2 2026-05-07 06:13 795K
20260507T00Z_MSC_CAPS_AirTemp_IsbL-0250_RLatLon0.03_PT024H.grib2 2026-05-07 06:13 1.0M
20260507T00Z_MSC_CAPS_AirTemp_IsbL-0275_RLatLon0.03_PT024H.grib2 2026-05-07 06:13 1.0M
20260507T00Z_MSC_CAPS_AirTemp_IsbL-0300_RLatLon0.03_PT024H.grib2 2026-05-07 06:13 1.0M
20260507T00Z_MSC_CAPS_AirTemp_IsbL-0350_RLatLon0.03_PT024H.grib2 2026-05-07 06:13 751K
20260507T00Z_MSC_CAPS_AirTemp_IsbL-0400_RLatLon0.03_PT024H.grib2 2026-05-07 06:13 752K
20260507T00Z_MSC_CAPS_AirTemp_IsbL-0450_RLatLon0.03_PT024H.grib2 2026-05-07 06:13 768K
20260507T00Z_MSC_CAPS_AirTemp_IsbL-0500_RLatLon0.03_PT024H.grib2 2026-05-07 06:13 783K
20260507T00Z_MSC_CAPS_AirTemp_IsbL-0550_RLatLon0.03_PT024H.grib2 2026-05-07 06:13 950K
20260507T00Z_MSC_CAPS_AirTemp_IsbL-0600_RLatLon0.03_PT024H.grib2 2026-05-07 06:13 968K
20260507T00Z_MSC_CAPS_AirTemp_IsbL-0650_RLatLon0.03_PT024H.grib2 2026-05-07 06:13 1.0M
20260507T00Z_MSC_CAPS_AirTemp_IsbL-0700_RLatLon0.03_PT024H.grib2 2026-05-07 06:13 874K
20260507T00Z_MSC_CAPS_AirTemp_IsbL-0750_RLatLon0.03_PT024H.grib2 2026-05-07 06:13 908K
20260507T00Z_MSC_CAPS_AirTemp_IsbL-0800_RLatLon0.03_PT024H.grib2 2026-05-07 06:13 1.1M
20260507T00Z_MSC_CAPS_AirTemp_IsbL-0850_RLatLon0.03_PT024H.grib2 2026-05-07 06:13 1.1M
20260507T00Z_MSC_CAPS_AirTemp_IsbL-0875_RLatLon0.03_PT024H.grib2 2026-05-07 06:13 1.1M
20260507T00Z_MSC_CAPS_AirTemp_IsbL-0900_RLatLon0.03_PT024H.grib2 2026-05-07 06:13 1.0M
20260507T00Z_MSC_CAPS_AirTemp_IsbL-0925_RLatLon0.03_PT024H.grib2 2026-05-07 06:13 1.0M
20260507T00Z_MSC_CAPS_AirTemp_IsbL-0950_RLatLon0.03_PT024H.grib2 2026-05-07 06:13 1.0M
20260507T00Z_MSC_CAPS_AirTemp_IsbL-0970_RLatLon0.03_PT024H.grib2 2026-05-07 06:13 1.0M
20260507T00Z_MSC_CAPS_AirTemp_IsbL-0985_RLatLon0.03_PT024H.grib2 2026-05-07 06:13 1.0M
20260507T00Z_MSC_CAPS_AirTemp_IsbL-1000_RLatLon0.03_PT024H.grib2 2026-05-07 06:13 1.0M
20260507T00Z_MSC_CAPS_AirTemp_IsbL-1015_RLatLon0.03_PT024H.grib2 2026-05-07 06:13 1.1M
20260507T00Z_MSC_CAPS_Albedo_Sfc_RLatLon0.03_PT024H.grib2 2026-05-07 06:13 2.7M
20260507T00Z_MSC_CAPS_CAPE_Sfc_RLatLon0.03_PT024H.grib2 2026-05-07 06:13 270K
20260507T00Z_MSC_CAPS_CloudWater_EAtm_RLatLon0.03_PT024H.grib2 2026-05-07 06:13 1.6M
20260507T00Z_MSC_CAPS_ConvectivePrecip-Accum_Sfc_RLatLon0.03_PT024H.grib2 2026-05-07 06:13 3.9M
20260507T00Z_MSC_CAPS_DewPointDepression_AGL-120m_RLatLon0.03_PT024H.grib2 2026-05-07 06:13 2.2M
20260507T00Z_MSC_CAPS_DewPointDepression_AGL-2m_RLatLon0.03_PT024H.grib2 2026-05-07 06:13 2.2M
20260507T00Z_MSC_CAPS_DewPointDepression_AGL-40m_RLatLon0.03_PT024H.grib2 2026-05-07 06:13 2.2M
20260507T00Z_MSC_CAPS_DewPointDepression_AGL-80m_RLatLon0.03_PT024H.grib2 2026-05-07 06:13 2.2M
20260507T00Z_MSC_CAPS_DewPointDepression_IsbL-0050_RLatLon0.03_PT024H.grib2 2026-05-07 06:13 2.6K
20260507T00Z_MSC_CAPS_DewPointDepression_IsbL-0100_RLatLon0.03_PT024H.grib2 2026-05-07 06:13 55K
20260507T00Z_MSC_CAPS_DewPointDepression_IsbL-0150_RLatLon0.03_PT024H.grib2 2026-05-07 06:13 98K
20260507T00Z_MSC_CAPS_DewPointDepression_IsbL-0175_RLatLon0.03_PT024H.grib2 2026-05-07 06:13 217K
20260507T00Z_MSC_CAPS_DewPointDepression_IsbL-0200_RLatLon0.03_PT024H.grib2 2026-05-07 06:13 399K
20260507T00Z_MSC_CAPS_DewPointDepression_IsbL-0225_RLatLon0.03_PT024H.grib2 2026-05-07 06:13 585K
20260507T00Z_MSC_CAPS_DewPointDepression_IsbL-0250_RLatLon0.03_PT024H.grib2 2026-05-07 06:13 862K
20260507T00Z_MSC_CAPS_DewPointDepression_IsbL-0275_RLatLon0.03_PT024H.grib2 2026-05-07 06:13 1.0M
20260507T00Z_MSC_CAPS_DewPointDepression_IsbL-0300_RLatLon0.03_PT024H.grib2 2026-05-07 06:13 1.1M
20260507T00Z_MSC_CAPS_DewPointDepression_IsbL-0350_RLatLon0.03_PT024H.grib2 2026-05-07 06:13 1.1M
20260507T00Z_MSC_CAPS_DewPointDepression_IsbL-0400_RLatLon0.03_PT024H.grib2 2026-05-07 06:13 1.1M
20260507T00Z_MSC_CAPS_DewPointDepression_IsbL-0450_RLatLon0.03_PT024H.grib2 2026-05-07 06:13 1.2M
20260507T00Z_MSC_CAPS_DewPointDepression_IsbL-0500_RLatLon0.03_PT024H.grib2 2026-05-07 06:13 1.2M
20260507T00Z_MSC_CAPS_DewPointDepression_IsbL-0550_RLatLon0.03_PT024H.grib2 2026-05-07 06:13 1.2M
20260507T00Z_MSC_CAPS_DewPointDepression_IsbL-0600_RLatLon0.03_PT024H.grib2 2026-05-07 06:13 1.3M
20260507T00Z_MSC_CAPS_DewPointDepression_IsbL-0650_RLatLon0.03_PT024H.grib2 2026-05-07 06:13 1.3M
20260507T00Z_MSC_CAPS_DewPointDepression_IsbL-0700_RLatLon0.03_PT024H.grib2 2026-05-07 06:13 1.4M
20260507T00Z_MSC_CAPS_DewPointDepression_IsbL-0750_RLatLon0.03_PT024H.grib2 2026-05-07 06:13 1.4M
20260507T00Z_MSC_CAPS_DewPointDepression_IsbL-0800_RLatLon0.03_PT024H.grib2 2026-05-07 06:13 1.4M
20260507T00Z_MSC_CAPS_DewPointDepression_IsbL-0850_RLatLon0.03_PT024H.grib2 2026-05-07 06:13 1.4M
20260507T00Z_MSC_CAPS_DewPointDepression_IsbL-0875_RLatLon0.03_PT024H.grib2 2026-05-07 06:13 1.4M
20260507T00Z_MSC_CAPS_DewPointDepression_IsbL-0900_RLatLon0.03_PT024H.grib2 2026-05-07 06:13 1.4M
20260507T00Z_MSC_CAPS_DewPointDepression_IsbL-0925_RLatLon0.03_PT024H.grib2 2026-05-07 06:13 1.4M
20260507T00Z_MSC_CAPS_DewPointDepression_IsbL-0950_RLatLon0.03_PT024H.grib2 2026-05-07 06:13 1.4M
20260507T00Z_MSC_CAPS_DewPointDepression_IsbL-0970_RLatLon0.03_PT024H.grib2 2026-05-07 06:13 1.4M
20260507T00Z_MSC_CAPS_DewPointDepression_IsbL-0985_RLatLon0.03_PT024H.grib2 2026-05-07 06:13 1.4M
20260507T00Z_MSC_CAPS_DewPointDepression_IsbL-1000_RLatLon0.03_PT024H.grib2 2026-05-07 06:13 1.4M
20260507T00Z_MSC_CAPS_DewPointDepression_IsbL-1015_RLatLon0.03_PT024H.grib2 2026-05-07 06:13 1.4M
20260507T00Z_MSC_CAPS_DewPoint_AGL-120m_RLatLon0.03_PT024H.grib2 2026-05-07 06:13 3.7M
20260507T00Z_MSC_CAPS_DewPoint_AGL-2m_RLatLon0.03_PT024H.grib2 2026-05-07 06:13 1.8M
20260507T00Z_MSC_CAPS_DewPoint_AGL-40m_RLatLon0.03_PT024H.grib2 2026-05-07 06:13 3.8M
20260507T00Z_MSC_CAPS_DewPoint_AGL-80m_RLatLon0.03_PT024H.grib2 2026-05-07 06:13 3.8M
20260507T00Z_MSC_CAPS_DownwardLongwaveRadiationFlux-Accum_Sfc_RLatLon0.03_PT024H.grib2 2026-05-07 06:13 2.4M
20260507T00Z_MSC_CAPS_DownwardShortwaveRadiationFlux-Accum_NTAtm_RLatLon0.03_PT024H.grib2 2026-05-07 06:13 550K
20260507T00Z_MSC_CAPS_DownwardShortwaveRadiationFlux-Accum_Sfc_RLatLon0.03_PT024H.grib2 2026-05-07 06:13 3.4M
20260507T00Z_MSC_CAPS_FreezingRain-Accum_Sfc_RLatLon0.03_PT024H.grib2 2026-05-07 06:13 672K
20260507T00Z_MSC_CAPS_GeopotentialHeight_IsbL-0050_RLatLon0.03_PT024H.grib2 2026-05-07 06:13 822K
20260507T00Z_MSC_CAPS_GeopotentialHeight_IsbL-0100_RLatLon0.03_PT024H.grib2 2026-05-07 06:13 744K
20260507T00Z_MSC_CAPS_GeopotentialHeight_IsbL-0150_RLatLon0.03_PT024H.grib2 2026-05-07 06:13 596K
20260507T00Z_MSC_CAPS_GeopotentialHeight_IsbL-0175_RLatLon0.03_PT024H.grib2 2026-05-07 06:13 713K
20260507T00Z_MSC_CAPS_GeopotentialHeight_IsbL-0200_RLatLon0.03_PT024H.grib2 2026-05-07 06:13 734K
20260507T00Z_MSC_CAPS_GeopotentialHeight_IsbL-0225_RLatLon0.03_PT024H.grib2 2026-05-07 06:13 747K
20260507T00Z_MSC_CAPS_GeopotentialHeight_IsbL-0250_RLatLon0.03_PT024H.grib2 2026-05-07 06:13 759K
20260507T00Z_MSC_CAPS_GeopotentialHeight_IsbL-0275_RLatLon0.03_PT024H.grib2 2026-05-07 06:13 770K
20260507T00Z_MSC_CAPS_GeopotentialHeight_IsbL-0300_RLatLon0.03_PT024H.grib2 2026-05-07 06:13 772K
20260507T00Z_MSC_CAPS_GeopotentialHeight_IsbL-0350_RLatLon0.03_PT024H.grib2 2026-05-07 06:13 773K
20260507T00Z_MSC_CAPS_GeopotentialHeight_IsbL-0400_RLatLon0.03_PT024H.grib2 2026-05-07 06:13 769K
20260507T00Z_MSC_CAPS_GeopotentialHeight_IsbL-0450_RLatLon0.03_PT024H.grib2 2026-05-07 06:13 764K
20260507T00Z_MSC_CAPS_GeopotentialHeight_IsbL-0500_RLatLon0.03_PT024H.grib2 2026-05-07 06:13 755K
20260507T00Z_MSC_CAPS_GeopotentialHeight_IsbL-0550_RLatLon0.03_PT024H.grib2 2026-05-07 06:13 746K
20260507T00Z_MSC_CAPS_GeopotentialHeight_IsbL-0600_RLatLon0.03_PT024H.grib2 2026-05-07 06:13 628K
20260507T00Z_MSC_CAPS_GeopotentialHeight_IsbL-0650_RLatLon0.03_PT024H.grib2 2026-05-07 06:13 625K
20260507T00Z_MSC_CAPS_GeopotentialHeight_IsbL-0700_RLatLon0.03_PT024H.grib2 2026-05-07 06:13 625K
20260507T00Z_MSC_CAPS_GeopotentialHeight_IsbL-0750_RLatLon0.03_PT024H.grib2 2026-05-07 06:13 623K
20260507T00Z_MSC_CAPS_GeopotentialHeight_IsbL-0800_RLatLon0.03_PT024H.grib2 2026-05-07 06:13 622K
20260507T00Z_MSC_CAPS_GeopotentialHeight_IsbL-0850_RLatLon0.03_PT024H.grib2 2026-05-07 06:13 809K
20260507T00Z_MSC_CAPS_GeopotentialHeight_IsbL-0875_RLatLon0.03_PT024H.grib2 2026-05-07 06:13 804K
20260507T00Z_MSC_CAPS_GeopotentialHeight_IsbL-0900_RLatLon0.03_PT024H.grib2 2026-05-07 06:13 823K
20260507T00Z_MSC_CAPS_GeopotentialHeight_IsbL-0925_RLatLon0.03_PT024H.grib2 2026-05-07 06:13 820K
20260507T00Z_MSC_CAPS_GeopotentialHeight_IsbL-0950_RLatLon0.03_PT024H.grib2 2026-05-07 06:13 842K
20260507T00Z_MSC_CAPS_GeopotentialHeight_IsbL-0970_RLatLon0.03_PT024H.grib2 2026-05-07 06:13 854K
20260507T00Z_MSC_CAPS_GeopotentialHeight_IsbL-0985_RLatLon0.03_PT024H.grib2 2026-05-07 06:13 862K
20260507T00Z_MSC_CAPS_GeopotentialHeight_IsbL-1000_RLatLon0.03_PT024H.grib2 2026-05-07 06:13 674K
20260507T00Z_MSC_CAPS_GeopotentialHeight_IsbL-1015_RLatLon0.03_PT024H.grib2 2026-05-07 06:13 683K
20260507T00Z_MSC_CAPS_GeopotentialHeight_Sfc_RLatLon0.03_PT024H.grib2 2026-05-07 06:13 1.0M
20260507T00Z_MSC_CAPS_IcePellets-Accum_Sfc_RLatLon0.03_PT024H.grib2 2026-05-07 06:13 12K
20260507T00Z_MSC_CAPS_LatentHeatNetFlux_Sfc_RLatLon0.03_PT024H.grib2 2026-05-07 06:13 2.0M
20260507T00Z_MSC_CAPS_LiftedIndex-MU-VT_IsbL-0500_RLatLon0.03_PT024H.grib2 2026-05-07 06:13 3.3M
20260507T00Z_MSC_CAPS_MixedLayerThickness_Sfc_RLatLon0.03_PT024H.nc 2026-05-07 06:13 16M
20260507T00Z_MSC_CAPS_NetLongwaveRadiationFlux-Accum_Sfc_RLatLon0.03_PT024H.grib2 2026-05-07 06:13 3.1M
20260507T00Z_MSC_CAPS_NetShortwaveRadiationFlux-Accum_Sfc_RLatLon0.03_PT024H.grib2 2026-05-07 06:13 3.3M
20260507T00Z_MSC_CAPS_PlanetaryBoundaryLayerHeight_Sfc_RLatLon0.03_PT024H.grib2 2026-05-07 06:13 3.1M
20260507T00Z_MSC_CAPS_Precip-Accum_Sfc_RLatLon0.03_PT024H.grib2 2026-05-07 06:13 5.1M
20260507T00Z_MSC_CAPS_PrecipRate_Sfc_RLatLon0.03_PT024H.grib2 2026-05-07 06:13 445K
20260507T00Z_MSC_CAPS_PrecipType-Instant_Sfc_RLatLon0.03_PT024H.grib2 2026-05-07 06:13 2.0M
20260507T00Z_MSC_CAPS_Pressure_MSL_RLatLon0.03_PT024H.grib2 2026-05-07 06:13 910K
20260507T00Z_MSC_CAPS_Pressure_Sfc_RLatLon0.03_PT024H.grib2 2026-05-07 06:13 1.2M
20260507T00Z_MSC_CAPS_RadiativeTemp_Sfc_RLatLon0.03_PT024H.grib2 2026-05-07 06:13 2.1M
20260507T00Z_MSC_CAPS_Rain-Accum_Sfc_RLatLon0.03_PT024H.grib2 2026-05-07 06:13 2.4M
20260507T00Z_MSC_CAPS_RelativeHumidity_AGL-120m_RLatLon0.03_PT024H.grib2 2026-05-07 06:13 2.9M
20260507T00Z_MSC_CAPS_RelativeHumidity_AGL-2m_RLatLon0.03_PT024H.grib2 2026-05-07 06:13 3.0M
20260507T00Z_MSC_CAPS_RelativeHumidity_AGL-40m_RLatLon0.03_PT024H.grib2 2026-05-07 06:13 2.9M
20260507T00Z_MSC_CAPS_RelativeHumidity_AGL-80m_RLatLon0.03_PT024H.grib2 2026-05-07 06:13 2.9M
20260507T00Z_MSC_CAPS_RelativeHumidity_IsbL-0050_RLatLon0.03_PT024H.grib2 2026-05-07 06:13 713K
20260507T00Z_MSC_CAPS_RelativeHumidity_IsbL-0100_RLatLon0.03_PT024H.grib2 2026-05-07 06:13 1.1M
20260507T00Z_MSC_CAPS_RelativeHumidity_IsbL-0150_RLatLon0.03_PT024H.grib2 2026-05-07 06:13 721K
20260507T00Z_MSC_CAPS_RelativeHumidity_IsbL-0175_RLatLon0.03_PT024H.grib2 2026-05-07 06:13 469K
20260507T00Z_MSC_CAPS_RelativeHumidity_IsbL-0200_RLatLon0.03_PT024H.grib2 2026-05-07 06:13 671K
20260507T00Z_MSC_CAPS_RelativeHumidity_IsbL-0225_RLatLon0.03_PT024H.grib2 2026-05-07 06:13 912K
20260507T00Z_MSC_CAPS_RelativeHumidity_IsbL-0250_RLatLon0.03_PT024H.grib2 2026-05-07 06:13 1.1M
20260507T00Z_MSC_CAPS_RelativeHumidity_IsbL-0275_RLatLon0.03_PT024H.grib2 2026-05-07 06:13 1.4M
20260507T00Z_MSC_CAPS_RelativeHumidity_IsbL-0300_RLatLon0.03_PT024H.grib2 2026-05-07 06:13 1.7M
20260507T00Z_MSC_CAPS_RelativeHumidity_IsbL-0350_RLatLon0.03_PT024H.grib2 2026-05-07 06:13 2.0M
20260507T00Z_MSC_CAPS_RelativeHumidity_IsbL-0400_RLatLon0.03_PT024H.grib2 2026-05-07 06:13 2.1M
20260507T00Z_MSC_CAPS_RelativeHumidity_IsbL-0450_RLatLon0.03_PT024H.grib2 2026-05-07 06:13 2.0M
20260507T00Z_MSC_CAPS_RelativeHumidity_IsbL-0500_RLatLon0.03_PT024H.grib2 2026-05-07 06:13 2.2M
20260507T00Z_MSC_CAPS_RelativeHumidity_IsbL-0550_RLatLon0.03_PT024H.grib2 2026-05-07 06:13 2.2M
20260507T00Z_MSC_CAPS_RelativeHumidity_IsbL-0600_RLatLon0.03_PT024H.grib2 2026-05-07 06:13 2.3M
20260507T00Z_MSC_CAPS_RelativeHumidity_IsbL-0650_RLatLon0.03_PT024H.grib2 2026-05-07 06:13 2.3M
20260507T00Z_MSC_CAPS_RelativeHumidity_IsbL-0700_RLatLon0.03_PT024H.grib2 2026-05-07 06:13 2.3M
20260507T00Z_MSC_CAPS_RelativeHumidity_IsbL-0750_RLatLon0.03_PT024H.grib2 2026-05-07 06:13 2.4M
20260507T00Z_MSC_CAPS_RelativeHumidity_IsbL-0800_RLatLon0.03_PT024H.grib2 2026-05-07 06:13 2.6M
20260507T00Z_MSC_CAPS_RelativeHumidity_IsbL-0850_RLatLon0.03_PT024H.grib2 2026-05-07 06:13 2.7M
20260507T00Z_MSC_CAPS_RelativeHumidity_IsbL-0875_RLatLon0.03_PT024H.grib2 2026-05-07 06:13 2.7M
20260507T00Z_MSC_CAPS_RelativeHumidity_IsbL-0900_RLatLon0.03_PT024H.grib2 2026-05-07 06:13 2.8M
20260507T00Z_MSC_CAPS_RelativeHumidity_IsbL-0925_RLatLon0.03_PT024H.grib2 2026-05-07 06:13 2.8M
20260507T00Z_MSC_CAPS_RelativeHumidity_IsbL-0950_RLatLon0.03_PT024H.grib2 2026-05-07 06:13 2.8M
20260507T00Z_MSC_CAPS_RelativeHumidity_IsbL-0970_RLatLon0.03_PT024H.grib2 2026-05-07 06:13 2.9M
20260507T00Z_MSC_CAPS_RelativeHumidity_IsbL-0985_RLatLon0.03_PT024H.grib2 2026-05-07 06:13 2.9M
20260507T00Z_MSC_CAPS_RelativeHumidity_IsbL-1000_RLatLon0.03_PT024H.grib2 2026-05-07 06:13 2.9M
20260507T00Z_MSC_CAPS_RelativeHumidity_IsbL-1015_RLatLon0.03_PT024H.grib2 2026-05-07 06:13 3.0M
20260507T00Z_MSC_CAPS_Runoff-Accum_Sfc_RLatLon0.03_PT024H.grib2 2026-05-07 06:13 362K
20260507T00Z_MSC_CAPS_SeaIceAreaFraction_Sfc_RLatLon0.03_PT024H.nc 2026-05-07 06:13 15M
20260507T00Z_MSC_CAPS_SeaIceCompressiveStrength_Sfc_RLatLon0.03_PT024H.nc 2026-05-07 06:13 15M
20260507T00Z_MSC_CAPS_SeaIceDivergence_Sfc_RLatLon0.03_PT024H.nc 2026-05-07 06:13 15M
20260507T00Z_MSC_CAPS_SeaIceInternalPressure_Sfc_RLatLon0.03_PT024H.nc 2026-05-07 06:13 15M
20260507T00Z_MSC_CAPS_SeaIceShear_Sfc_RLatLon0.03_PT024H.nc 2026-05-07 06:13 14M
20260507T00Z_MSC_CAPS_SeaIceSnowTemp_Sfc_RLatLon0.03_PT024H.nc 2026-05-07 06:13 14M
20260507T00Z_MSC_CAPS_SeaIceSnowVolume_Sfc_RLatLon0.03_PT024H.nc 2026-05-07 06:13 15M
20260507T00Z_MSC_CAPS_SeaIceVelocityX_Sfc_RLatLon0.03_PT024H.nc 2026-05-07 06:13 15M
20260507T00Z_MSC_CAPS_SeaIceVelocityY_Sfc_RLatLon0.03_PT024H.nc 2026-05-07 06:13 15M
20260507T00Z_MSC_CAPS_SeaIceVolume_Sfc_RLatLon0.03_PT024H.nc 2026-05-07 06:13 15M
20260507T00Z_MSC_CAPS_SeaSurfaceHeight_Sfc_RLatLon0.03_PT024H.nc 2026-05-07 06:13 16M
20260507T00Z_MSC_CAPS_SeaWaterSalinity_DBS-0.5m_RLatLon0.03_PT024H.nc 2026-05-07 06:13 16M
20260507T00Z_MSC_CAPS_SeaWaterSalinity_DBS-all_RLatLon0.03_PT024H.nc 2026-05-07 06:13 107M
20260507T00Z_MSC_CAPS_SeaWaterTemp_DBS-0.5m_RLatLon0.03_PT024H.nc 2026-05-07 06:13 15M
20260507T00Z_MSC_CAPS_SeaWaterTemp_DBS-all_RLatLon0.03_PT024H.nc 2026-05-07 06:13 88M
20260507T00Z_MSC_CAPS_SeaWaterVelocityX_DBS-0.5m_RLatLon0.03_PT024H.nc 2026-05-07 06:13 17M
20260507T00Z_MSC_CAPS_SeaWaterVelocityX_DBS-all_RLatLon0.03_PT024H.nc 2026-05-07 06:13 212M
20260507T00Z_MSC_CAPS_SeaWaterVelocityY_DBS-0.5m_RLatLon0.03_PT024H.nc 2026-05-07 06:13 18M
20260507T00Z_MSC_CAPS_SeaWaterVelocityY_DBS-all_RLatLon0.03_PT024H.nc 2026-05-07 06:13 219M
20260507T00Z_MSC_CAPS_SensibleHeatNetFlux_Sfc_RLatLon0.03_PT024H.grib2 2026-05-07 06:13 2.2M
20260507T00Z_MSC_CAPS_ShowalterIndex_IsbL-0500_RLatLon0.03_PT024H.grib2 2026-05-07 06:13 4.3M
20260507T00Z_MSC_CAPS_Snow-Accum_Sfc_RLatLon0.03_PT024H.grib2 2026-05-07 06:13 3.8M
20260507T00Z_MSC_CAPS_SnowDensity_Sfc_RLatLon0.03_PT024H.grib2 2026-05-07 06:13 1.3M
20260507T00Z_MSC_CAPS_SnowDepthWaterEquivalent_Sfc_RLatLon0.03_PT024H.grib2 2026-05-07 06:13 644K
20260507T00Z_MSC_CAPS_SnowDepth_Sfc_RLatLon0.03_PT024H.grib2 2026-05-07 06:13 1.1M
20260507T00Z_MSC_CAPS_SoilTemp_DBS-0to10cm_RLatLon0.03_PT024H.grib2 2026-05-07 06:13 1.6M
20260507T00Z_MSC_CAPS_SoilTemp_Sfc_RLatLon0.03_PT024H.grib2 2026-05-07 06:13 1.8M
20260507T00Z_MSC_CAPS_SoilVolumetricIceContent_Sfc_RLatLon0.03_PT024H.grib2 2026-05-07 06:13 1.3M
20260507T00Z_MSC_CAPS_SoilVolumetricWaterContent_DBS-0to10cm_RLatLon0.03_PT024H.grib2 2026-05-07 06:13 1.3M
20260507T00Z_MSC_CAPS_SoilVolumetricWaterContent_DBS-0to1cm_RLatLon0.03_PT024H.grib2 2026-05-07 06:13 1.8M
20260507T00Z_MSC_CAPS_SpecificHumidity_AGL-120m_RLatLon0.03_PT024H.grib2 2026-05-07 06:13 1.5M
20260507T00Z_MSC_CAPS_SpecificHumidity_AGL-2m_RLatLon0.03_PT024H.grib2 2026-05-07 06:13 1.8M
20260507T00Z_MSC_CAPS_SpecificHumidity_AGL-40m_RLatLon0.03_PT024H.grib2 2026-05-07 06:13 1.6M
20260507T00Z_MSC_CAPS_SpecificHumidity_AGL-80m_RLatLon0.03_PT024H.grib2 2026-05-07 06:13 1.6M
20260507T00Z_MSC_CAPS_SpecificHumidity_IsbL-0050_RLatLon0.03_PT024H.grib2 2026-05-07 06:13 906K
20260507T00Z_MSC_CAPS_SpecificHumidity_IsbL-0100_RLatLon0.03_PT024H.grib2 2026-05-07 06:13 959K
20260507T00Z_MSC_CAPS_SpecificHumidity_IsbL-0150_RLatLon0.03_PT024H.grib2 2026-05-07 06:13 865K
20260507T00Z_MSC_CAPS_SpecificHumidity_IsbL-0175_RLatLon0.03_PT024H.grib2 2026-05-07 06:13 1.0M
20260507T00Z_MSC_CAPS_SpecificHumidity_IsbL-0200_RLatLon0.03_PT024H.grib2 2026-05-07 06:13 896K
20260507T00Z_MSC_CAPS_SpecificHumidity_IsbL-0225_RLatLon0.03_PT024H.grib2 2026-05-07 06:13 863K
20260507T00Z_MSC_CAPS_SpecificHumidity_IsbL-0250_RLatLon0.03_PT024H.grib2 2026-05-07 06:13 871K
20260507T00Z_MSC_CAPS_SpecificHumidity_IsbL-0275_RLatLon0.03_PT024H.grib2 2026-05-07 06:13 1.1M
20260507T00Z_MSC_CAPS_SpecificHumidity_IsbL-0300_RLatLon0.03_PT024H.grib2 2026-05-07 06:13 1.1M
20260507T00Z_MSC_CAPS_SpecificHumidity_IsbL-0350_RLatLon0.03_PT024H.grib2 2026-05-07 06:13 1.0M
20260507T00Z_MSC_CAPS_SpecificHumidity_IsbL-0400_RLatLon0.03_PT024H.grib2 2026-05-07 06:13 1.0M
20260507T00Z_MSC_CAPS_SpecificHumidity_IsbL-0450_RLatLon0.03_PT024H.grib2 2026-05-07 06:13 1.2M
20260507T00Z_MSC_CAPS_SpecificHumidity_IsbL-0500_RLatLon0.03_PT024H.grib2 2026-05-07 06:13 1.1M
20260507T00Z_MSC_CAPS_SpecificHumidity_IsbL-0550_RLatLon0.03_PT024H.grib2 2026-05-07 06:13 1.3M
20260507T00Z_MSC_CAPS_SpecificHumidity_IsbL-0600_RLatLon0.03_PT024H.grib2 2026-05-07 06:13 1.4M
20260507T00Z_MSC_CAPS_SpecificHumidity_IsbL-0650_RLatLon0.03_PT024H.grib2 2026-05-07 06:13 1.2M
20260507T00Z_MSC_CAPS_SpecificHumidity_IsbL-0700_RLatLon0.03_PT024H.grib2 2026-05-07 06:13 1.4M
20260507T00Z_MSC_CAPS_SpecificHumidity_IsbL-0750_RLatLon0.03_PT024H.grib2 2026-05-07 06:13 1.5M
20260507T00Z_MSC_CAPS_SpecificHumidity_IsbL-0800_RLatLon0.03_PT024H.grib2 2026-05-07 06:13 1.7M
20260507T00Z_MSC_CAPS_SpecificHumidity_IsbL-0850_RLatLon0.03_PT024H.grib2 2026-05-07 06:13 1.8M
20260507T00Z_MSC_CAPS_SpecificHumidity_IsbL-0875_RLatLon0.03_PT024H.grib2 2026-05-07 06:13 1.9M
20260507T00Z_MSC_CAPS_SpecificHumidity_IsbL-0900_RLatLon0.03_PT024H.grib2 2026-05-07 06:13 1.6M
20260507T00Z_MSC_CAPS_SpecificHumidity_IsbL-0925_RLatLon0.03_PT024H.grib2 2026-05-07 06:13 1.6M
20260507T00Z_MSC_CAPS_SpecificHumidity_IsbL-0950_RLatLon0.03_PT024H.grib2 2026-05-07 06:13 1.7M
20260507T00Z_MSC_CAPS_SpecificHumidity_IsbL-0970_RLatLon0.03_PT024H.grib2 2026-05-07 06:13 1.7M
20260507T00Z_MSC_CAPS_SpecificHumidity_IsbL-0985_RLatLon0.03_PT024H.grib2 2026-05-07 06:13 1.8M
20260507T00Z_MSC_CAPS_SpecificHumidity_IsbL-1000_RLatLon0.03_PT024H.grib2 2026-05-07 06:13 1.8M
20260507T00Z_MSC_CAPS_SpecificHumidity_IsbL-1015_RLatLon0.03_PT024H.grib2 2026-05-07 06:13 1.8M
20260507T00Z_MSC_CAPS_SpecificHumidity_Sfc_RLatLon0.03_PT024H.grib2 2026-05-07 06:13 2.1M
20260507T00Z_MSC_CAPS_StormRelativeHelicity_Sfc_RLatLon0.03_PT024H.grib2 2026-05-07 06:13 3.1M
20260507T00Z_MSC_CAPS_Thickness_IsbL-1000to0500_RLatLon0.03_PT024H.grib2 2026-05-07 06:13 413K
20260507T00Z_MSC_CAPS_TotalCloudCover_Sfc_RLatLon0.03_PT024H.grib2 2026-05-07 06:13 3.7M
20260507T00Z_MSC_CAPS_TurboclineDepth_Sfc_RLatLon0.03_PT024H.nc 2026-05-07 06:13 16M
20260507T00Z_MSC_CAPS_UpwardLongwaveRadiationFlux_NTAtm_RLatLon0.03_PT024H.grib2 2026-05-07 06:13 3.0M
20260507T00Z_MSC_CAPS_UpwardShortwaveRadiationFlux_NTAtm_RLatLon0.03_PT024H.grib2 2026-05-07 06:13 2.2M
20260507T00Z_MSC_CAPS_VerticalVelocity_IsbL-0250_RLatLon0.03_PT024H.grib2 2026-05-07 06:13 1.1M
20260507T00Z_MSC_CAPS_VerticalVelocity_IsbL-0500_RLatLon0.03_PT024H.grib2 2026-05-07 06:13 1.0M
20260507T00Z_MSC_CAPS_VerticalVelocity_IsbL-0700_RLatLon0.03_PT024H.grib2 2026-05-07 06:13 1.1M
20260507T00Z_MSC_CAPS_VerticalVelocity_IsbL-0850_RLatLon0.03_PT024H.grib2 2026-05-07 06:13 1.3M
20260507T00Z_MSC_CAPS_VerticalVelocity_IsbL-1000_RLatLon0.03_PT024H.grib2 2026-05-07 06:13 1.3M
20260507T00Z_MSC_CAPS_WindDir_AGL-10m_RLatLon0.03_PT024H.grib2 2026-05-07 06:13 2.5M
20260507T00Z_MSC_CAPS_WindDir_AGL-120m_RLatLon0.03_PT024H.grib2 2026-05-07 06:13 1.3M
20260507T00Z_MSC_CAPS_WindDir_AGL-40m_RLatLon0.03_PT024H.grib2 2026-05-07 06:13 1.4M
20260507T00Z_MSC_CAPS_WindDir_AGL-80m_RLatLon0.03_PT024H.grib2 2026-05-07 06:13 1.4M
20260507T00Z_MSC_CAPS_WindDir_IsbL-0050_RLatLon0.03_PT024H.grib2 2026-05-07 06:13 1.1M
20260507T00Z_MSC_CAPS_WindDir_IsbL-0100_RLatLon0.03_PT024H.grib2 2026-05-07 06:13 1.0M
20260507T00Z_MSC_CAPS_WindDir_IsbL-0150_RLatLon0.03_PT024H.grib2 2026-05-07 06:13 1.1M
20260507T00Z_MSC_CAPS_WindDir_IsbL-0175_RLatLon0.03_PT024H.grib2 2026-05-07 06:13 1.1M
20260507T00Z_MSC_CAPS_WindDir_IsbL-0200_RLatLon0.03_PT024H.grib2 2026-05-07 06:13 1.1M
20260507T00Z_MSC_CAPS_WindDir_IsbL-0225_RLatLon0.03_PT024H.grib2 2026-05-07 06:13 1.1M
20260507T00Z_MSC_CAPS_WindDir_IsbL-0250_RLatLon0.03_PT024H.grib2 2026-05-07 06:13 1.1M
20260507T00Z_MSC_CAPS_WindDir_IsbL-0275_RLatLon0.03_PT024H.grib2 2026-05-07 06:13 1.1M
20260507T00Z_MSC_CAPS_WindDir_IsbL-0300_RLatLon0.03_PT024H.grib2 2026-05-07 06:13 1.1M
20260507T00Z_MSC_CAPS_WindDir_IsbL-0350_RLatLon0.03_PT024H.grib2 2026-05-07 06:13 1.1M
20260507T00Z_MSC_CAPS_WindDir_IsbL-0400_RLatLon0.03_PT024H.grib2 2026-05-07 06:13 1.2M
20260507T00Z_MSC_CAPS_WindDir_IsbL-0450_RLatLon0.03_PT024H.grib2 2026-05-07 06:13 1.2M
20260507T00Z_MSC_CAPS_WindDir_IsbL-0500_RLatLon0.03_PT024H.grib2 2026-05-07 06:13 1.3M
20260507T00Z_MSC_CAPS_WindDir_IsbL-0550_RLatLon0.03_PT024H.grib2 2026-05-07 06:13 1.3M
20260507T00Z_MSC_CAPS_WindDir_IsbL-0600_RLatLon0.03_PT024H.grib2 2026-05-07 06:13 1.4M
20260507T00Z_MSC_CAPS_WindDir_IsbL-0650_RLatLon0.03_PT024H.grib2 2026-05-07 06:13 1.4M
20260507T00Z_MSC_CAPS_WindDir_IsbL-0700_RLatLon0.03_PT024H.grib2 2026-05-07 06:13 1.5M
20260507T00Z_MSC_CAPS_WindDir_IsbL-0750_RLatLon0.03_PT024H.grib2 2026-05-07 06:13 1.6M
20260507T00Z_MSC_CAPS_WindDir_IsbL-0800_RLatLon0.03_PT024H.grib2 2026-05-07 06:13 1.8M
20260507T00Z_MSC_CAPS_WindDir_IsbL-0850_RLatLon0.03_PT024H.grib2 2026-05-07 06:13 1.9M
20260507T00Z_MSC_CAPS_WindDir_IsbL-0875_RLatLon0.03_PT024H.grib2 2026-05-07 06:13 2.0M
20260507T00Z_MSC_CAPS_WindDir_IsbL-0900_RLatLon0.03_PT024H.grib2 2026-05-07 06:13 2.0M
20260507T00Z_MSC_CAPS_WindDir_IsbL-0925_RLatLon0.03_PT024H.grib2 2026-05-07 06:13 2.1M
20260507T00Z_MSC_CAPS_WindDir_IsbL-0950_RLatLon0.03_PT024H.grib2 2026-05-07 06:13 2.1M
20260507T00Z_MSC_CAPS_WindDir_IsbL-0970_RLatLon0.03_PT024H.grib2 2026-05-07 06:13 2.2M
20260507T00Z_MSC_CAPS_WindDir_IsbL-0985_RLatLon0.03_PT024H.grib2 2026-05-07 06:13 2.3M
20260507T00Z_MSC_CAPS_WindDir_IsbL-1000_RLatLon0.03_PT024H.grib2 2026-05-07 06:13 2.4M
20260507T00Z_MSC_CAPS_WindDir_IsbL-1015_RLatLon0.03_PT024H.grib2 2026-05-07 06:13 2.4M
20260507T00Z_MSC_CAPS_WindGust-Max_AGL-10m_RLatLon0.03_PT024H.grib2 2026-05-07 06:13 2.5M
20260507T00Z_MSC_CAPS_WindGust-Min_AGL-10m_RLatLon0.03_PT024H.grib2 2026-05-07 06:13 2.4M
20260507T00Z_MSC_CAPS_WindGust_AGL-10m_RLatLon0.03_PT024H.grib2 2026-05-07 06:13 2.5M
20260507T00Z_MSC_CAPS_WindSpeed_AGL-10m_RLatLon0.03_PT024H.grib2 2026-05-07 06:13 2.1M
20260507T00Z_MSC_CAPS_WindSpeed_AGL-120m_RLatLon0.03_PT024H.grib2 2026-05-07 06:13 1.4M
20260507T00Z_MSC_CAPS_WindSpeed_AGL-40m_RLatLon0.03_PT024H.grib2 2026-05-07 06:13 1.5M
20260507T00Z_MSC_CAPS_WindSpeed_AGL-80m_RLatLon0.03_PT024H.grib2 2026-05-07 06:13 1.4M
20260507T00Z_MSC_CAPS_WindSpeed_IsbL-0050_RLatLon0.03_PT024H.grib2 2026-05-07 06:13 944K
20260507T00Z_MSC_CAPS_WindSpeed_IsbL-0100_RLatLon0.03_PT024H.grib2 2026-05-07 06:13 1.1M
20260507T00Z_MSC_CAPS_WindSpeed_IsbL-0150_RLatLon0.03_PT024H.grib2 2026-05-07 06:13 1.0M
20260507T00Z_MSC_CAPS_WindSpeed_IsbL-0175_RLatLon0.03_PT024H.grib2 2026-05-07 06:13 1.1M
20260507T00Z_MSC_CAPS_WindSpeed_IsbL-0200_RLatLon0.03_PT024H.grib2 2026-05-07 06:13 883K
20260507T00Z_MSC_CAPS_WindSpeed_IsbL-0225_RLatLon0.03_PT024H.grib2 2026-05-07 06:13 1.0M
20260507T00Z_MSC_CAPS_WindSpeed_IsbL-0250_RLatLon0.03_PT024H.grib2 2026-05-07 06:13 1.0M
20260507T00Z_MSC_CAPS_WindSpeed_IsbL-0275_RLatLon0.03_PT024H.grib2 2026-05-07 06:13 1.0M
20260507T00Z_MSC_CAPS_WindSpeed_IsbL-0300_RLatLon0.03_PT024H.grib2 2026-05-07 06:13 1.0M
20260507T00Z_MSC_CAPS_WindSpeed_IsbL-0350_RLatLon0.03_PT024H.grib2 2026-05-07 06:13 1.0M
20260507T00Z_MSC_CAPS_WindSpeed_IsbL-0400_RLatLon0.03_PT024H.grib2 2026-05-07 06:13 1.3M
20260507T00Z_MSC_CAPS_WindSpeed_IsbL-0450_RLatLon0.03_PT024H.grib2 2026-05-07 06:13 1.3M
20260507T00Z_MSC_CAPS_WindSpeed_IsbL-0500_RLatLon0.03_PT024H.grib2 2026-05-07 06:13 1.4M
20260507T00Z_MSC_CAPS_WindSpeed_IsbL-0550_RLatLon0.03_PT024H.grib2 2026-05-07 06:13 1.5M
20260507T00Z_MSC_CAPS_WindSpeed_IsbL-0600_RLatLon0.03_PT024H.grib2 2026-05-07 06:13 1.5M
20260507T00Z_MSC_CAPS_WindSpeed_IsbL-0650_RLatLon0.03_PT024H.grib2 2026-05-07 06:13 1.4M
20260507T00Z_MSC_CAPS_WindSpeed_IsbL-0700_RLatLon0.03_PT024H.grib2 2026-05-07 06:13 1.5M
20260507T00Z_MSC_CAPS_WindSpeed_IsbL-0750_RLatLon0.03_PT024H.grib2 2026-05-07 06:13 1.6M
20260507T00Z_MSC_CAPS_WindSpeed_IsbL-0800_RLatLon0.03_PT024H.grib2 2026-05-07 06:13 1.7M
20260507T00Z_MSC_CAPS_WindSpeed_IsbL-0850_RLatLon0.03_PT024H.grib2 2026-05-07 06:13 1.7M
20260507T00Z_MSC_CAPS_WindSpeed_IsbL-0875_RLatLon0.03_PT024H.grib2 2026-05-07 06:13 1.7M
20260507T00Z_MSC_CAPS_WindSpeed_IsbL-0900_RLatLon0.03_PT024H.grib2 2026-05-07 06:13 1.8M
20260507T00Z_MSC_CAPS_WindSpeed_IsbL-0925_RLatLon0.03_PT024H.grib2 2026-05-07 06:13 1.8M
20260507T00Z_MSC_CAPS_WindSpeed_IsbL-0950_RLatLon0.03_PT024H.grib2 2026-05-07 06:13 1.9M
20260507T00Z_MSC_CAPS_WindSpeed_IsbL-0970_RLatLon0.03_PT024H.grib2 2026-05-07 06:13 1.9M
20260507T00Z_MSC_CAPS_WindSpeed_IsbL-0985_RLatLon0.03_PT024H.grib2 2026-05-07 06:13 2.0M
20260507T00Z_MSC_CAPS_WindSpeed_IsbL-1000_RLatLon0.03_PT024H.grib2 2026-05-07 06:13 2.0M
20260507T00Z_MSC_CAPS_WindSpeed_IsbL-1015_RLatLon0.03_PT024H.grib2 2026-05-07 06:13 2.0M
20260507T00Z_MSC_CAPS_WindU_AGL-10m_RLatLon0.03_PT024H.grib2 2026-05-07 06:13 2.0M
20260507T00Z_MSC_CAPS_WindU_AGL-120m_RLatLon0.03_PT024H.grib2 2026-05-07 06:13 1.1M
20260507T00Z_MSC_CAPS_WindU_AGL-40m_RLatLon0.03_PT024H.grib2 2026-05-07 06:13 1.2M
20260507T00Z_MSC_CAPS_WindU_AGL-80m_RLatLon0.03_PT024H.grib2 2026-05-07 06:13 1.2M
20260507T00Z_MSC_CAPS_WindU_IsbL-0050_RLatLon0.03_PT024H.grib2 2026-05-07 06:13 939K
20260507T00Z_MSC_CAPS_WindU_IsbL-0100_RLatLon0.03_PT024H.grib2 2026-05-07 06:13 787K
20260507T00Z_MSC_CAPS_WindU_IsbL-0150_RLatLon0.03_PT024H.grib2 2026-05-07 06:13 920K
20260507T00Z_MSC_CAPS_WindU_IsbL-0175_RLatLon0.03_PT024H.grib2 2026-05-07 06:13 733K
20260507T00Z_MSC_CAPS_WindU_IsbL-0200_RLatLon0.03_PT024H.grib2 2026-05-07 06:13 755K
20260507T00Z_MSC_CAPS_WindU_IsbL-0225_RLatLon0.03_PT024H.grib2 2026-05-07 06:13 902K
20260507T00Z_MSC_CAPS_WindU_IsbL-0250_RLatLon0.03_PT024H.grib2 2026-05-07 06:13 920K
20260507T00Z_MSC_CAPS_WindU_IsbL-0275_RLatLon0.03_PT024H.grib2 2026-05-07 06:13 925K
20260507T00Z_MSC_CAPS_WindU_IsbL-0300_RLatLon0.03_PT024H.grib2 2026-05-07 06:13 932K
20260507T00Z_MSC_CAPS_WindU_IsbL-0350_RLatLon0.03_PT024H.grib2 2026-05-07 06:13 733K
20260507T00Z_MSC_CAPS_WindU_IsbL-0400_RLatLon0.03_PT024H.grib2 2026-05-07 06:13 955K
20260507T00Z_MSC_CAPS_WindU_IsbL-0450_RLatLon0.03_PT024H.grib2 2026-05-07 06:13 1.0M
20260507T00Z_MSC_CAPS_WindU_IsbL-0500_RLatLon0.03_PT024H.grib2 2026-05-07 06:13 1.0M
20260507T00Z_MSC_CAPS_WindU_IsbL-0550_RLatLon0.03_PT024H.grib2 2026-05-07 06:13 920K
20260507T00Z_MSC_CAPS_WindU_IsbL-0600_RLatLon0.03_PT024H.grib2 2026-05-07 06:13 946K
20260507T00Z_MSC_CAPS_WindU_IsbL-0650_RLatLon0.03_PT024H.grib2 2026-05-07 06:13 1.2M
20260507T00Z_MSC_CAPS_WindU_IsbL-0700_RLatLon0.03_PT024H.grib2 2026-05-07 06:13 1.3M
20260507T00Z_MSC_CAPS_WindU_IsbL-0750_RLatLon0.03_PT024H.grib2 2026-05-07 06:13 1.4M
20260507T00Z_MSC_CAPS_WindU_IsbL-0800_RLatLon0.03_PT024H.grib2 2026-05-07 06:13 1.4M
20260507T00Z_MSC_CAPS_WindU_IsbL-0850_RLatLon0.03_PT024H.grib2 2026-05-07 06:13 1.5M
20260507T00Z_MSC_CAPS_WindU_IsbL-0875_RLatLon0.03_PT024H.grib2 2026-05-07 06:13 1.6M
20260507T00Z_MSC_CAPS_WindU_IsbL-0900_RLatLon0.03_PT024H.grib2 2026-05-07 06:13 1.6M
20260507T00Z_MSC_CAPS_WindU_IsbL-0925_RLatLon0.03_PT024H.grib2 2026-05-07 06:13 1.7M
20260507T00Z_MSC_CAPS_WindU_IsbL-0950_RLatLon0.03_PT024H.grib2 2026-05-07 06:13 1.3M
20260507T00Z_MSC_CAPS_WindU_IsbL-0970_RLatLon0.03_PT024H.grib2 2026-05-07 06:13 1.4M
20260507T00Z_MSC_CAPS_WindU_IsbL-0985_RLatLon0.03_PT024H.grib2 2026-05-07 06:13 1.8M
20260507T00Z_MSC_CAPS_WindU_IsbL-1000_RLatLon0.03_PT024H.grib2 2026-05-07 06:13 1.8M
20260507T00Z_MSC_CAPS_WindU_IsbL-1015_RLatLon0.03_PT024H.grib2 2026-05-07 06:13 2.0M
20260507T00Z_MSC_CAPS_WindV_AGL-10m_RLatLon0.03_PT024H.grib2 2026-05-07 06:13 1.9M
20260507T00Z_MSC_CAPS_WindV_AGL-120m_RLatLon0.03_PT024H.grib2 2026-05-07 06:13 1.1M
20260507T00Z_MSC_CAPS_WindV_AGL-40m_RLatLon0.03_PT024H.grib2 2026-05-07 06:13 1.2M
20260507T00Z_MSC_CAPS_WindV_AGL-80m_RLatLon0.03_PT024H.grib2 2026-05-07 06:13 1.1M
20260507T00Z_MSC_CAPS_WindV_IsbL-0050_RLatLon0.03_PT024H.grib2 2026-05-07 06:13 766K
20260507T00Z_MSC_CAPS_WindV_IsbL-0100_RLatLon0.03_PT024H.grib2 2026-05-07 06:13 783K
20260507T00Z_MSC_CAPS_WindV_IsbL-0150_RLatLon0.03_PT024H.grib2 2026-05-07 06:13 907K
20260507T00Z_MSC_CAPS_WindV_IsbL-0175_RLatLon0.03_PT024H.grib2 2026-05-07 06:13 845K
20260507T00Z_MSC_CAPS_WindV_IsbL-0200_RLatLon0.03_PT024H.grib2 2026-05-07 06:13 872K
20260507T00Z_MSC_CAPS_WindV_IsbL-0225_RLatLon0.03_PT024H.grib2 2026-05-07 06:13 682K
20260507T00Z_MSC_CAPS_WindV_IsbL-0250_RLatLon0.03_PT024H.grib2 2026-05-07 06:13 698K
20260507T00Z_MSC_CAPS_WindV_IsbL-0275_RLatLon0.03_PT024H.grib2 2026-05-07 06:13 706K
20260507T00Z_MSC_CAPS_WindV_IsbL-0300_RLatLon0.03_PT024H.grib2 2026-05-07 06:13 712K
20260507T00Z_MSC_CAPS_WindV_IsbL-0350_RLatLon0.03_PT024H.grib2 2026-05-07 06:13 939K
20260507T00Z_MSC_CAPS_WindV_IsbL-0400_RLatLon0.03_PT024H.grib2 2026-05-07 06:13 949K
20260507T00Z_MSC_CAPS_WindV_IsbL-0450_RLatLon0.03_PT024H.grib2 2026-05-07 06:13 968K
20260507T00Z_MSC_CAPS_WindV_IsbL-0500_RLatLon0.03_PT024H.grib2 2026-05-07 06:13 1.0M
20260507T00Z_MSC_CAPS_WindV_IsbL-0550_RLatLon0.03_PT024H.grib2 2026-05-07 06:13 1.0M
20260507T00Z_MSC_CAPS_WindV_IsbL-0600_RLatLon0.03_PT024H.grib2 2026-05-07 06:13 1.0M
20260507T00Z_MSC_CAPS_WindV_IsbL-0650_RLatLon0.03_PT024H.grib2 2026-05-07 06:13 959K
20260507T00Z_MSC_CAPS_WindV_IsbL-0700_RLatLon0.03_PT024H.grib2 2026-05-07 06:13 1.0M
20260507T00Z_MSC_CAPS_WindV_IsbL-0750_RLatLon0.03_PT024H.grib2 2026-05-07 06:13 1.1M
20260507T00Z_MSC_CAPS_WindV_IsbL-0800_RLatLon0.03_PT024H.grib2 2026-05-07 06:13 1.1M
20260507T00Z_MSC_CAPS_WindV_IsbL-0850_RLatLon0.03_PT024H.grib2 2026-05-07 06:13 1.2M
20260507T00Z_MSC_CAPS_WindV_IsbL-0875_RLatLon0.03_PT024H.grib2 2026-05-07 06:13 1.2M
20260507T00Z_MSC_CAPS_WindV_IsbL-0900_RLatLon0.03_PT024H.grib2 2026-05-07 06:13 1.3M
20260507T00Z_MSC_CAPS_WindV_IsbL-0925_RLatLon0.03_PT024H.grib2 2026-05-07 06:13 1.6M
20260507T00Z_MSC_CAPS_WindV_IsbL-0950_RLatLon0.03_PT024H.grib2 2026-05-07 06:13 1.7M
20260507T00Z_MSC_CAPS_WindV_IsbL-0970_RLatLon0.03_PT024H.grib2 2026-05-07 06:13 1.7M
20260507T00Z_MSC_CAPS_WindV_IsbL-0985_RLatLon0.03_PT024H.grib2 2026-05-07 06:13 1.8M
20260507T00Z_MSC_CAPS_WindV_IsbL-1000_RLatLon0.03_PT024H.grib2 2026-05-07 06:13 1.9M
20260507T00Z_MSC_CAPS_WindV_IsbL-1015_RLatLon0.03_PT024H.grib2 2026-05-07 06:13 1.9M